Date String (YYYY-MM-DD hh:mm:ss) UTC,Instrument flags,Ambient pressure (hPa),Sample flow (lpm),Bypass flow (lpm),Sample temperature (°C),Ambient temperature (°C),ASC tube jacket temperature (°C),LED temperature (°C),Box temperature (°C),Sample RH (%),Span deviation,Mass concentration (μg/m³),Mass concentration (μg/m³),Mass concentration (μg/m³)
DateTimeUTC,F1_M11,P_M11,Q1_M11,Q2_M11,T1_M11,T2_M11,T3_M11,T4_M11,T5_M11,U1_M11,ZSPAN_M11,X2_M11,X0_M11,X1_M11
2023-05-04 08:00:00,,0825.1,5.00,0.00,29.8,28.1,00.0,38.3,31.3,11.6,0000.0,0005.29,0016.25,0003.42
2023-05-04 08:01:00,,0825.2,4.99,0.00,29.8,28.1,00.0,38.3,31.3,11.6,0000.0,0005.17,0015.42,0003.41
2023-05-04 08:02:00,,0825.2,5.00,0.00,29.8,28.0,00.0,38.3,31.3,11.7,0000.0,0005.13,0014.91,0003.41
2023-05-04 08:03:00,,0825.2,4.99,0.00,29.8,28.0,00.0,38.3,31.3,11.7,0000.0,0005.12,0014.75,0003.39
2023-05-04 08:04:00,,0825.2,5.01,0.00,29.8,28.0,00.0,38.3,31.3,11.6,0000.0,0005.09,0015.51,0003.38
2023-05-04 08:05:00,,0825.1,5.01,0.00,29.8,28.0,00.0,38.3,31.3,11.7,0000.0,0005.04,0015.10,0003.39
2023-05-04 08:06:00,,0825.1,5.00,0.00,29.7,28.0,00.0,38.2,31.3,11.7,0000.0,0005.03,0014.59,0003.38
2023-05-04 08:07:00,,0825.1,4.99,0.00,29.7,28.0,00.0,38.2,31.3,11.7,0000.0,0005.01,0014.39,0003.38
2023-05-04 08:08:00,,0825.1,5.01,0.00,29.7,28.0,00.0,38.2,31.2,11.6,0000.0,0004.95,0013.65,0003.36
2023-05-04 08:09:00,,0825.1,5.00,0.00,29.7,28.1,00.0,38.2,31.2,11.6,0000.0,0004.91,0013.26,0003.36
2023-05-04 08:10:00,,0825.1,4.99,0.00,29.7,28.1,00.0,38.2,31.2,11.7,0000.0,0004.89,0013.37,0003.36
2023-05-04 08:11:00,,0825.1,5.01,0.00,29.7,28.1,00.0,38.2,31.2,11.7,0000.0,0004.91,0012.94,0003.34
2023-05-04 08:12:00,,0825.1,5.01,0.00,29.7,28.1,00.0,38.2,31.2,11.6,0000.0,0004.98,0013.42,0003.33
2023-05-04 08:13:00,,0825.1,5.00,0.00,29.7,28.2,00.0,38.2,31.3,11.7,0000.0,0004.95,0013.65,0003.32
2023-05-04 08:14:00,,0825.0,4.99,0.00,29.7,28.2,00.0,38.2,31.3,11.8,0000.0,0004.89,0013.29,0003.31
2023-05-04 08:15:00,,0825.0,5.01,0.00,29.7,28.2,00.0,38.2,31.3,11.8,0000.0,0004.83,0012.71,0003.31
2023-05-04 08:16:00,,0825.0,5.01,0.00,29.7,28.2,00.0,38.2,31.3,11.8,0000.0,0004.86,0013.64,0003.31
2023-05-04 08:17:00,,0824.9,4.99,0.00,29.8,28.2,00.0,38.2,31.3,11.9,0000.0,0004.91,0014.00,0003.32
2023-05-04 08:18:00,,0824.9,5.00,0.00,29.8,28.2,00.0,38.2,31.3,11.8,0000.0,0004.92,0014.11,0003.32
2023-05-04 08:19:00,,0824.9,5.00,0.00,29.8,28.2,00.0,38.2,31.3,11.8,0000.0,0004.91,0013.85,0003.31
2023-05-04 08:20:00,,0824.9,5.02,0.00,29.8,28.2,00.0,38.2,31.3,11.8,0000.0,0004.94,0014.01,0003.30
2023-05-04 08:21:00,,0824.9,4.98,0.00,29.8,28.2,00.0,38.2,31.3,11.8,0000.0,0004.92,0015.41,0003.30
2023-05-04 08:22:00,,0824.9,5.00,0.00,29.8,28.2,00.0,38.2,31.3,11.8,0000.0,0004.87,0015.86,0003.31
2023-05-04 08:23:00,,0824.9,5.01,0.00,29.7,28.1,00.0,38.2,31.3,11.8,0000.0,0004.80,0015.58,0003.31
2023-05-04 08:24:00,,0824.9,4.99,0.00,29.7,28.0,00.0,38.2,31.2,11.8,0000.0,0004.85,0015.61,0003.32
2023-05-04 08:25:00,,0824.9,4.99,0.00,29.7,28.0,00.0,38.1,31.2,11.8,0000.0,0004.86,0015.71,0003.31
2023-05-04 08:26:00,,0824.9,5.01,0.00,29.7,27.9,00.0,38.1,31.2,11.8,0000.0,0004.84,0015.68,0003.30
2023-05-04 08:27:00,,0825.0,5.00,0.00,29.6,27.9,00.0,38.1,31.0,11.8,0000.0,0004.80,0015.74,0003.29
2023-05-04 08:28:00,,0824.9,5.00,0.00,29.6,27.8,00.0,38.1,31.0,11.8,0000.0,0004.68,0015.29,0003.26
2023-05-04 08:29:00,,0824.9,5.00,0.00,29.5,27.8,00.0,38.1,31.0,11.8,0000.0,0004.69,0015.18,0003.26
2023-05-04 08:30:00,,0824.9,4.98,0.00,29.5,27.8,00.0,38.1,31.0,11.8,0000.0,0004.76,0016.10,0003.25
2023-05-04 08:31:00,,0824.9,5.00,0.00,29.5,27.8,00.0,38.1,31.0,11.9,0000.0,0004.78,0016.14,0003.25
2023-05-04 08:32:00,,0824.9,5.01,0.00,29.5,27.8,00.0,38.0,31.1,12.0,0000.0,0004.82,0015.27,0003.25
2023-05-04 08:33:00,,0824.9,5.00,0.00,29.5,27.8,00.0,38.0,31.1,11.7,0000.0,0004.84,0014.30,0003.24
2023-05-04 08:34:00,,0824.9,4.99,0.00,29.5,27.8,00.0,38.0,31.1,11.7,0000.0,0004.80,0013.92,0003.23
2023-05-04 08:35:00,,0824.9,5.01,0.00,29.5,27.8,00.0,38.0,31.1,11.8,0000.0,0004.75,0014.04,0003.22
2023-05-04 08:36:00,,0824.9,5.00,0.00,29.5,27.7,00.0,38.0,31.0,11.8,0000.0,0004.72,0013.91,0003.21
2023-05-04 08:37:00,,0824.9,5.00,0.00,29.5,27.7,00.0,38.0,31.0,12.0,0000.0,0004.76,0013.55,0003.21
2023-05-04 08:38:00,,0824.9,5.00,0.00,29.5,27.7,00.0,38.0,31.0,11.9,0000.0,0004.72,0012.50,0003.21
2023-05-04 08:39:00,,0824.9,4.99,0.00,29.5,27.7,00.0,38.0,31.0,11.9,0000.0,0004.77,0012.37,0003.22
2023-05-04 08:40:00,,0824.9,4.98,0.00,29.4,27.7,00.0,38.0,31.0,11.9,0000.0,0004.73,0012.23,0003.21
2023-05-04 08:41:00,,0824.9,5.00,0.00,29.4,27.7,00.0,37.9,31.0,12.0,0000.0,0004.65,0012.21,0003.21
2023-05-04 08:42:00,,0824.9,5.01,0.00,29.4,27.7,00.0,37.9,31.0,11.8,0000.0,0004.66,0013.75,0003.21
2023-05-04 08:43:00,,0824.8,5.00,0.00,29.4,27.6,00.0,37.9,30.9,11.8,0000.0,0004.64,0013.39,0003.22
2023-05-04 08:44:00,,0824.9,4.99,0.00,29.4,27.6,00.0,37.9,30.9,12.0,0000.0,0004.62,0013.14,0003.22
2023-05-04 08:45:00,,0824.9,5.00,0.00,29.4,27.7,00.0,37.9,30.9,11.8,0000.0,0004.65,0013.81,0003.22
2023-05-04 08:46:00,,0824.9,5.00,0.00,29.4,27.7,00.0,37.9,30.9,11.8,0000.0,0004.65,0013.49,0003.23
2023-05-04 08:47:00,,0824.9,5.00,0.00,29.4,27.7,00.0,37.9,30.9,11.9,0000.0,0004.68,0013.49,0003.22
2023-05-04 08:48:00,,0824.8,5.01,0.00,29.4,27.7,00.0,37.9,30.9,11.8,0000.0,0004.70,0013.53,0003.22
2023-05-04 08:49:00,,0824.9,4.99,0.00,29.3,27.6,00.0,37.9,30.9,11.8,0000.0,0004.68,0013.67,0003.22
2023-05-04 08:50:00,,0824.9,5.00,0.00,29.3,27.6,00.0,37.8,30.9,11.8,0000.0,0004.66,0013.81,0003.21
2023-05-04 08:51:00,,0824.9,5.01,0.00,29.3,27.6,00.0,37.8,30.9,11.8,0000.0,0004.66,0014.36,0003.21
2023-05-04 08:52:00,,0824.9,5.00,0.00,29.3,27.6,00.0,37.8,30.9,11.8,0000.0,0004.64,0013.81,0003.21
2023-05-04 08:53:00,,0824.9,5.01,0.00,29.3,27.5,00.0,37.8,30.8,11.7,0000.0,0004.62,0011.75,0003.21
2023-05-04 08:54:00,,0824.9,4.99,0.00,29.3,27.4,00.0,37.8,30.8,11.8,0000.0,0004.61,0012.07,0003.20
2023-05-04 08:55:00,,0824.9,4.99,0.00,29.2,27.4,00.0,37.8,30.7,11.8,0000.0,0004.60,0012.17,0003.18
2023-05-04 08:56:00,,0824.9,5.00,0.00,29.2,27.4,00.0,37.8,30.7,11.9,0000.0,0004.56,0011.64,0003.18
2023-05-04 08:57:00,,0824.8,5.01,0.00,29.2,27.3,00.0,37.7,30.7,11.9,0000.0,0004.55,0011.43,0003.17
2023-05-04 08:58:00,,0824.8,5.00,0.00,29.2,27.3,00.0,37.7,30.7,11.9,0000.0,0004.54,0011.30,0003.18
2023-05-04 08:59:00,,0824.7,5.00,0.00,29.1,27.3,00.0,37.7,30.7,12.0,0000.0,0004.50,0011.14,0003.18
